Flight Track Log - Related Links

Times and Time Zones

All times are in EDT time to prevent confusion due to time zone crossing. See the ASH3732 flight status page for this flight to view local times or setup timezone preferences in your user account.

Time Position Orientation Groundspeed Altitude Reporting Facility
EDT Latitude Longitude Course Direction KTS MPH feet Rate Location/Type
Fri 02:29:17 PM 42.3500 -71.0167 124° Southeast 164 189 800  Level KA90
Fri 02:30:41 PM 42.3167 -70.9500 124° Southeast 222 255 4,300 2,164 Climbing KA90
Fri 02:32:20 PM 42.3364 -70.7997 80° East 290 334 7,400 2,113 Climbing Boston Center
Fri 02:33:20 PM 42.3917 -70.7336 41° Northeast 267 307 9,900 1,650 Climbing Boston Center
Fri 02:34:20 PM 42.4769 -70.7231 North 264 304 10,700 1,091 Climbing Boston Center
Fri 02:35:21 PM 42.5575 -70.8081 322° Northwest 280 322 12,100 1,488 Climbing Boston Center
Fri 02:36:21 PM 42.6133 -70.9308 302° West 349 402 13,700 942 Climbing Boston Center
Fri 02:37:22 PM 42.6797 -71.0647 304° West 387 445 14,000 397 Climbing Boston Center
Fri 02:38:22 PM 42.7289 -71.1683 303° West 387 445 14,500 958 Climbing Boston Center
Fri 02:39:21 PM 42.7844 -71.3142 297° West 387 445 15,900 1,424 Climbing Boston Center
Fri 02:40:20 PM 42.7961 -71.4497 277° West 398 458 17,300 1,412 Climbing Boston Center
Fri 02:41:20 PM 42.8142 -71.6164 278° West 407 468 18,700 1,289 Climbing Boston Center
Fri 02:42:21 PM 42.8278 -71.7578 278° West 412 474 19,900 1,339 Climbing Boston Center
Fri 02:43:21 PM 42.8453 -71.9133 279° West 412 474 21,400 1,438 Climbing Boston Center
Fri 02:44:22 PM 42.8583 -72.0661 277° West 412 474 22,800 1,388 Climbing Boston Center
Fri 02:45:22 PM 42.8733 -72.2247 277° West 418 481 24,200 1,576 Climbing Boston Center
Fri 02:46:20 PM 42.8922 -72.3975 279° West 424 488 25,900 1,412 Climbing Boston Center
Fri 02:47:21 PM 42.9067 -72.5336 278° West 424 488 27,000 1,230 Climbing Boston Center
Fri 02:48:22 PM 42.9128 -72.6925 273° West 424 488 28,400 1,220 Climbing Boston Center
Fri 02:49:19 PM 42.9250 -72.8483 276° West 424 488 29,400 1,017 Climbing Boston Center
Fri 02:50:20 PM 42.9428 -73.0186 278° West 424 488 30,400 878 Climbing Boston Center
Fri 02:51:22 PM 42.9567 -73.1778 277° West 424 488 31,200 787 Climbing Boston Center
Fri 02:52:22 PM 42.9700 -73.3367 277° West 424 488 32,000 410 Climbing Boston Center
Fri 02:53:19 PM 42.9769 -73.4986 273° West 424 488 32,000  Level Boston Center
Fri 02:54:20 PM 42.9919 -73.6692 277° West 437 503 32,000  Level Boston Center
Fri 02:55:20 PM 43.0067 -73.8397 277° West 450 518 32,000 344 Level Boston Center
Fri 02:56:22 PM 43.0189 -74.0133 276° West 457 526 32,700 689 Climbing Boston Center
Fri 02:57:22 PM 43.0272 -74.1642 274° West 457 526 33,400 661 Climbing Boston Center
Fri 02:58:20 PM 43.0433 -74.3322 278° West 457 526 34,000 621 Climbing Boston Center
Fri 02:58:20 PM 43.0433 -74.3322 278° West 457 526 34,000 -100 Level Boston Center
Fri 02:59:20 PM 43.0528 -74.5031 274° West 457 526 33,900 -100 Descending Boston Center
Fri 02:59:20 PM 43.0528 -74.5031 274° West 457 526 33,900 100 Level Boston Center
Fri 03:00:20 PM 43.0642 -74.6794 275° West 463 533 34,000 100 Climbing Boston Center
Fri 03:00:20 PM 43.0642 -74.6794 275° West 463 533 34,000  Level Boston Center
Fri 03:01:21 PM 43.0772 -74.8533 276° West 463 533 34,000  Level Boston Center
Fri 03:01:21 PM 43.0772 -74.8533 276° West 463 533 34,000  Level Boston Center
Fri 03:02:22 PM 43.0881 -75.0272 275° West 463 533 34,000  Level Boston Center
Fri 03:02:22 PM 43.0881 -75.0272 275° West 463 533 34,000 632 Level Boston Center
Fri 03:03:19 PM 43.0986 -75.1983 275° West 463 533 34,600 632 Climbing Boston Center
Fri 03:03:19 PM 43.0986 -75.1983 275° West 463 533 34,600 492 Level Boston Center
Fri 03:04:20 PM 43.1108 -75.3753 275° West 463 533 35,100 492 Climbing Boston Center
Fri 03:04:20 PM 43.1108 -75.3753 275° West 463 533 35,100 500 Level Boston Center
Fri 03:05:20 PM 43.1208 -75.5494 275° West 463 533 35,600 500 Climbing Boston Center
Fri 03:05:20 PM 43.1208 -75.5494 275° West 463 533 35,600 590 Level Boston Center
Fri 03:06:21 PM 43.1328 -75.7208 276° West 463 533 36,200 590 Climbing Boston Center
Fri 03:06:21 PM 43.1328 -75.7208 276° West 463 533 36,200 429 Level Boston Center
Fri 03:08:27 PM 43.1550 -76.1033 275° West 460 529 37,100 429 Climbing Cleveland Center
Fri 03:08:27 PM 43.1550 -76.1033 275° West 460 529 37,100 700 Level Cleveland Center
Fri 03:09:27 PM 43.1617 -76.2764 273° West 460 529 37,800 700 Climbing Cleveland Center
Fri 03:09:27 PM 43.1617 -76.2764 273° West 460 529 37,800 200 Level Cleveland Center
Fri 03:10:27 PM 43.1636 -76.4442 271° West 460 529 38,000 200 Climbing Cleveland Center
Fri 03:10:27 PM 43.1636 -76.4442 271° West 460 529 38,000  Level Cleveland Center
Fri 03:11:27 PM 43.1592 -76.6156 268° West 460 529 38,000  Level Cleveland Center
Fri 03:11:27 PM 43.1592 -76.6156 268° West 460 529 38,000  Level Cleveland Center
Fri 03:12:27 PM 43.1603 -76.7692 271° West 455 524 38,000  Level Cleveland Center
Fri 03:12:27 PM 43.1603 -76.7692 271° West 455 524 38,000  Level Cleveland Center
Fri 03:13:27 PM 43.1594 -76.9400 270° West 455 524 38,000  Level Cleveland Center
Fri 03:13:27 PM 43.1594 -76.9400 270° West 455 524 38,000  Level Cleveland Center
Fri 03:14:27 PM 43.1586 -77.1136 270° West 460 529 38,000  Level Cleveland Center
Fri 03:14:27 PM 43.1586 -77.1136 270° West 460 529 38,000  Level Cleveland Center
Fri 03:15:27 PM 43.1572 -77.2844 269° West 460 529 38,000  Level Cleveland Center
Fri 03:15:27 PM 43.1572 -77.2844 269° West 460 529 38,000  Level Cleveland Center
Fri 03:16:27 PM 43.1536 -77.4528 268° West 460 529 38,000  Level Cleveland Center
Fri 03:16:27 PM 43.1536 -77.4528 268° West 460 529 38,000  Level Cleveland Center
Fri 03:17:27 PM 43.1539 -77.6233 270° West 460 529 38,000  Level Cleveland Center
Fri 03:17:27 PM 43.1539 -77.6233 270° West 460 529 38,000  Level Cleveland Center
Fri 03:18:27 PM 43.1519 -77.7914 269° West 455 524 38,000  Level Cleveland Center
Fri 03:18:27 PM 43.1519 -77.7914 269° West 455 524 38,000  Level Cleveland Center
Fri 03:19:27 PM 43.1494 -77.9594 269° West 455 524 38,000  Level Cleveland Center
Fri 03:19:27 PM 43.1494 -77.9594 269° West 455 524 38,000  Level Cleveland Center
Fri 03:20:27 PM 43.1469 -78.1275 269° West 450 518 38,000  Level Cleveland Center
Fri 03:20:27 PM 43.1469 -78.1275 269° West 450 518 38,000  Level Cleveland Center
Fri 03:21:27 PM 43.1442 -78.2956 269° West 444 511 38,000  Level Cleveland Center
Fri 03:21:27 PM 43.1442 -78.2956 269° West 444 511 38,000  Level Cleveland Center
Fri 03:22:27 PM 43.1411 -78.4606 269° West 444 511 38,000  Level Cleveland Center
Fri 03:22:27 PM 43.1411 -78.4606 269° West 444 511 38,000  Level Cleveland Center
Fri 03:23:27 PM 43.1378 -78.6258 268° West 444 511 38,000  Level Cleveland Center
Fri 03:23:27 PM 43.1378 -78.6258 268° West 444 511 38,000  Level Cleveland Center
Fri 03:24:27 PM 43.1300 -78.7939 266° West 444 511 38,000  Level Cleveland Center
Fri 03:24:27 PM 43.1300 -78.7939 266° West 444 511 38,000  Level Cleveland Center
Fri 03:25:27 PM 43.1283 -78.9589 269° West 444 511 38,000  Level Cleveland Center
Fri 03:25:27 PM 43.1283 -78.9589 269° West 444 511 38,000  Level Cleveland Center
Fri 03:26:44 PM 43.1167 -79.1833 266° West 440 506 38,000  Level Toronto Center
Fri 03:26:44 PM 43.1167 -79.1833 266° West 440 506 38,000  Level Toronto Center
Fri 03:27:44 PM 43.1000 -79.3333 261° West 440 506 38,000  Level Toronto Center
Fri 03:27:44 PM 43.1000 -79.3333 261° West 440 506 38,000  Level Toronto Center
Fri 03:28:44 PM 43.1000 -79.5000 270° West 450 518 38,000  Level Toronto Center
Fri 03:28:44 PM 43.1000 -79.5000 270° West 450 518 38,000  Level Toronto Center
Fri 03:29:44 PM 43.1000 -79.6833 270° West 450 518 38,000  Level Toronto Center
Fri 03:29:44 PM 43.1000 -79.6833 270° West 450 518 38,000  Level Toronto Center
Fri 03:30:44 PM 43.0833 -79.8333 261° West 450 518 38,000  Level Toronto Center
Fri 03:30:44 PM 43.0833 -79.8333 261° West 450 518 38,000  Level Toronto Center
Fri 03:31:44 PM 43.0833 -80.0000 270° West 450 518 38,000  Level Toronto Center
Fri 03:31:44 PM 43.0833 -80.0000 270° West 450 518 38,000  Level Toronto Center
Fri 03:32:44 PM 43.0667 -80.1833 263° West 450 518 38,000  Level Toronto Center
Fri 03:32:44 PM 43.0667 -80.1833 263° West 450 518 38,000  Level Toronto Center
Fri 03:33:44 PM 43.0667 -80.3667 270° West 440 506 38,000  Level Toronto Center
Fri 03:33:44 PM 43.0667 -80.3667 270° West 440 506 38,000  Level Toronto Center
Fri 03:34:44 PM 43.0667 -80.5167 270° West 440 506 38,000  Level Toronto Center
Fri 03:34:44 PM 43.0667 -80.5167 270° West 440 506 38,000  Level Toronto Center
Fri 03:35:44 PM 43.0500 -80.6833 262° West 420 483 38,000  Level Toronto Center
Fri 03:35:44 PM 43.0500 -80.6833 262° West 420 483 38,000  Level Toronto Center
Fri 03:36:44 PM 43.0333 -80.8500 262° West 420 483 38,000  Level Toronto Center
Fri 03:36:44 PM 43.0333 -80.8500 262° West 420 483 38,000  Level Toronto Center
Fri 03:37:44 PM 43.0333 -81.0000 270° West 420 483 38,000  Level Toronto Center
Fri 03:37:44 PM 43.0333 -81.0000 270° West 420 483 38,000  Level Toronto Center
Fri 03:38:44 PM 43.0167 -81.1667 262° West 420 483 38,000  Level Toronto Center
Fri 03:38:44 PM 43.0167 -81.1667 262° West 420 483 38,000  Level Toronto Center
Fri 03:39:44 PM 43.0167 -81.3167 270° West 420 483 38,000  Level Toronto Center
Fri 03:39:44 PM 43.0167 -81.3167 270° West 420 483 38,000  Level Toronto Center
Fri 03:40:44 PM 43.0167 -81.4833 270° West 420 483 38,000  Level Toronto Center
Fri 03:40:44 PM 43.0167 -81.4833 270° West 420 483 38,000  Level Toronto Center
Fri 03:41:44 PM 43.0167 -81.6333 270° West 420 483 38,000  Level Toronto Center
Fri 03:41:44 PM 43.0167 -81.6333 270° West 420 483 38,000  Level Toronto Center
Fri 03:42:44 PM 43.0167 -81.8000 270° West 420 483 38,000  Level Toronto Center
Fri 03:42:44 PM 43.0167 -81.8000 270° West 420 483 38,000  Level Toronto Center
Fri 03:48:51 PM 43.0000 -82.7747 269° West 422 486 38,000 -211 Level Cleveland Center
Fri 03:49:51 PM 42.9947 -82.9364 267° West 422 486 36,500 -1,500 Descending Cleveland Center
Fri 03:50:51 PM 42.9894 -83.0922 267° West 422 486 35,000 -1,500 Descending Cleveland Center
Fri 03:51:51 PM 42.9856 -83.2594 268° West 422 486 33,500 -1,450 Descending Cleveland Center
Fri 03:52:51 PM 42.9797 -83.4211 267° West 422 486 32,100 -750 Descending Cleveland Center
Fri 03:53:51 PM 42.9714 -83.5825 266° West 422 486 32,000 -50 Descending Cleveland Center
Fri 03:54:51 PM 42.9669 -83.7525 268° West 427 491 32,000  Level Cleveland Center
Fri 03:55:51 PM 42.9497 -83.9164 262° West 438 504 32,000  Level Cleveland Center
Fri 03:56:51 PM 42.9344 -84.0800 263° West 443 510 32,000  Level Cleveland Center
Fri 03:57:51 PM 42.9169 -84.2433 262° West 443 510 32,000  Level Cleveland Center
Fri 03:58:51 PM 42.9033 -84.4072 264° West 443 510 32,000  Level Cleveland Center
Fri 03:59:25 PM 42.8928 -84.5094 262° West 440 506 32,000  Level Chicago Center
Fri 04:00:27 PM 42.8753 -84.6731 262° West 439 505 32,000  Level Chicago Center
Fri 04:01:29 PM 42.8589 -84.8400 262° West 443 510 32,000  Level Chicago Center
Fri 04:02:31 PM 42.8408 -85.0042 262° West 440 506 32,000  Level Chicago Center
Fri 04:03:33 PM 42.8233 -85.1694 262° West 441 507 32,000 -768 Level Chicago Center
Fri 04:04:36 PM 42.8017 -85.3692 262° West 443 510 30,400 -960 Descending Chicago Center
Fri 04:05:38 PM 42.7817 -85.5319 261° West 438 504 30,000 -194 Descending Chicago Center
Fri 04:06:40 PM 42.7511 -85.6914 255° West 434 499 30,000  Level Chicago Center
Fri 04:07:42 PM 42.7219 -85.8528 256° West 435 501 30,000 -532 Level Chicago Center
Fri 04:08:44 PM 42.6944 -86.0028 256° West 417 480 28,900 -1,645 Descending Chicago Center
Fri 04:09:46 PM 42.6708 -86.1394 257° West 376 433 26,600 -2,226 Descending Chicago Center
Fri 04:10:48 PM 42.6458 -86.2753 256° West 369 425 24,300 -2,613 Descending Chicago Center
Fri 04:11:50 PM 42.6125 -86.4569 256° West 427 491 21,200 -2,855 Descending Chicago Center
Fri 04:12:52 PM 42.5825 -86.6158 256° West 439 505 18,400 -2,710 Descending Chicago Center
Fri 04:13:54 PM 42.5511 -86.7653 254° West 416 479 15,600 -2,806 Descending Chicago Center
Fri 04:14:56 PM 42.5122 -86.9086 250° West 408 470 12,600 -2,661 Descending Chicago Center
Fri 04:15:58 PM 42.4756 -87.0436 250° West 389 448 10,100 -1,296 Descending Chicago Center
Fri 04:17:01 PM 42.4428 -87.1644 250° West 350 403 9,900 -528 Descending Chicago Center
Fri 04:18:03 PM 42.4167 -87.2664 251° West 300 345 9,000 -435 Descending Chicago Center
Fri 04:19:05 PM 42.3825 -87.3844 249° West 284 327 9,000 -48 Level Chicago Center
Fri 04:20:07 PM 42.3536 -87.4836 249° West 278 320 8,900 -871 Descending Chicago Center
Fri 04:21:09 PM 42.3022 -87.5581 227° Southwest 283 326 7,200 -919 Descending Chicago Center
Fri 04:22:11 PM 42.2439 -87.6242 220° Southwest 279 321 7,000 -726 Descending Chicago Center
Fri 04:23:13 PM 42.1894 -87.6867 220° Southwest 264 304 5,700 -1,355 Descending Chicago Center
Fri 04:24:15 PM 42.1369 -87.7461 220° Southwest 212 244 4,200 -1,210 Descending Chicago Center
Fri 04:25:17 PM 42.0978 -87.7869 218° Southwest 190 219 3,200 -1,000 Descending Chicago Center
Fri 04:26:03 PM 42.0667 -87.8167 215° Southwest 179 206 2,400 -857 Descending Chicago TRACON
Fri 04:27:09 PM 42.0333 -87.8667 228° Southwest 138 159 1,600 -750 Descending Chicago TRACON
Fri 04:28:03 PM 42.0000 -87.8833 200° South 140 161 900 -778 Descending Chicago TRACON

Login

Don't have an account? Register now (free) for customized features, flight alerts, and more!